User: anonymous
Location: Caltech
(34.1382°N, 118.1253°W)
Time: 09:41:38
(UTC-07:00)
Language:

ATLAS 5 CENTAUR R/B - Orbit

View from above orbital plane
View from above orbital plane
View from above satellite
View from above satellite

Ground track
Ground track

The orbit data is extracted from the following two-line orbital elements,

1 30778U 07006G   14244.72031888  .00054667  00000-0  68273-3 0   763
2 30778 035.6837 350.6930 0009843 169.9308 309.4099 15.58691187416832
Epoch (UTC): 01 September 2014 17:17:15
Eccentricity: 0.0009843
inclination: 35.6837°
perigee height: 385 km
apogee height: 398 km
right ascension of ascending node: 350.6930°
argument of perigee: 169.9308°
revolutions per day: 15.58691187
mean anomaly at epoch: 309.4099°
orbit number at epoch: 41683

The dashed part of the orbit path shows where the satellite is in the earth's shadow,  

DLR